Regional Weather Roundup
Issued by NWS

Home | Current Version | Previous Version | Graphics & Text | Print | Product List | Glossary On
Versions: 1 2 3 4 5 6 7 8 9 10 11 12 13 14 15 16 17 18 19 20 21 22 23 24 25 26 27
000
ASUS45 KTFX 270910
RWRMT
MONTANA REGIONAL WEATHER ROUNDUP
NATIONAL WEATHER SERVICE GREAT FALLS MT
300 AM MDT SAT MAY 27 2017

NOTE: "FAIR" INDICATES FEW OR NO CLOUDS BELOW 12000 FEET WITH NO
SIGNIFICANT WEATHER AND/OR OBSTRUCTIONS TO VISIBILITY.

MTZ001>007-043-271000-
WEST OF THE DIVIDE

CITY           SKY/WX    TMP DP  RH WIND       PRES   REMARKS
KALISPELL      CLEAR     39  38  96 CALM      30.03R
MISSOULA       PTCLDY    47  43  86 W5        30.08R
BUTTE          CLOUDY    43  34  70 SE3       30.13R
MULLAN PASS    CLEAR     46  31  55 NW6       30.14R
ANACONDA         N/A     50  34  53 E5        30.10R
DEER LODGE       N/A     46  39  76 CALM      30.13R
EUREKA           N/A     43  37  81 CALM      30.03R
HAMILTON         N/A     52  37  58 S5        30.10R
RONAN            N/A     51  42  71 CALM      30.08R
$$

MTZ008-052>055-271000-
SOUTHWEST MONTANA

CITY           SKY/WX    TMP DP  RH WIND       PRES   REMARKS
BOZEMAN        CLOUDY    43  39  86 SE8       30.10R
DILLON         CLOUDY    42  34  73 S7        30.11R
ENNIS          CLOUDY    43  34  70 SE7       30.16R
THREE FORKS      N/A     46  42  86 CALM      30.07S
$$

MTZ009-010-012-014-046-048-049-054-271000-
EAST SLOPES AND CENTRAL MONTANA

CITY           SKY/WX    TMP DP  RH WIND       PRES   REMARKS
CUT BANK       MOCLDY    42  35  76 W9        29.98S
GREAT FALLS    CLEAR     46  37  71 SW12      30.01S
MALMSTROM AFB  CLEAR     47  39  74 SW10      30.01R
HELENA         CLOUDY    47  39  74 CALM      30.07R
CHOTEAU          N/A     45  34  65 SW5       30.03R
CONRAD           N/A     45  43  93 SW5       30.01S
$$

MTZ011-013-016-021-045-047-050-051-271000-
NORTH CENTRAL MONTANA

CITY           SKY/WX    TMP DP  RH WIND       PRES   REMARKS
HAVRE          PTCLDY    46  37  71 SW13      29.92R
LEWISTOWN      CLOUDY    39  34  82 SE6       30.02S
N BAR RANCH      N/A     39  30  70 W6        30.04S
CHINOOK          N/A     45  36  70 W3        29.90S
FORT BENTON      N/A     46  39  76 CALM      29.98S
$$

MTZ017>020-022>027-061-062-271000-
NORTHEAST MONTANA

CITY           SKY/WX    TMP DP  RH WIND       PRES   REMARKS
GLASGOW        CLOUDY    48  40  73 W7        29.89F
JORDAN           N/A     43  34  70 W8        29.94R
SIDNEY         CLEAR     43  37  79 S7        29.89R
WOLF POINT     CLOUDY    48  38  68 W9        29.89R
MALTA          CLOUDY    41  37  87 SW6       29.89F
PLENTYWOOD       N/A     46  37  71 W6        29.84S
POPLAR           N/A     45  37  76 W6        29.88R
$$

MTZ028>42-056>058-271000-
SOUTHCENTRAL AND SOUTHEAST MONTANA

CITY           SKY/WX    TMP DP  RH WIND       PRES   REMARKS
BAKER          CLEAR     43  34  70 SW7       29.95R
BILLINGS       CLEAR     47  37  68 SW16      30.02S
LIVINGSTON     CLOUDY    41  37  86 NW13      30.08R
MILES CITY     CLEAR     43  32  65 W6        29.95S
BIG TIMBER     PTCLDY    45  36  70 W16       30.08R
FORSYTH          N/A     48  37  66 SW3       29.96F
LAUREL           N/A     41  34  76 SW3       30.01F
ROUNDUP          N/A     42  35  76 SW5       29.93R
$$

REGIONAL REPORTS...DAKOTAS

CITY           SKY/WX    TMP DP  RH WIND       PRES   REMARKS
WILLISTON      MOCLDY    47  40  76 SW12      29.86R
MINOT          CLEAR     52  39  61 SW12      29.80F
DICKINSON      CLEAR     39  33  79 W7        29.88R
BEACH            N/A     41  37  87 SW8       29.95R
CROSBY           N/A     48  41  76 W12       29.82R
TIOGA            N/A     43  43 100 W7        29.86S
WATFORD CITY     N/A     41  37  87 SW8       29.86S
BISMARCK       PTCLDY    45  37  73 CALM      29.87R
GRAND FORKS    PTCLDY    48  43  82 S8        29.77S
FARGO          CLOUDY    52  43  71 SW9       29.82S
BUFFALO SD       N/A     45  36  70 W12       29.88S
RAPID CITY     CLOUDY    50  46  86 W7        29.97S
$$

REGIONAL REPORTS...WYOMING/IDAHO/WASHINGTON

CITY           SKY/WX    TMP DP  RH WIND       PRES   REMARKS
GILLETTE       CLOUDY    45  43  93 W8        30.02R
SHERIDAN       PTCLDY    36  33  89 CALM      30.03R
BUFFALO WY     CLEAR     41  34  76 W7        30.05R
CODY           PTCLDY    41  35  79 SW5       30.08R
YELLOWSTONE LA   N/A     30  29  96 CALM      30.18R
IDAHO FALLS    PTCLDY    37  37 100 N3        30.16R
SALMON         CLOUDY    46  39  76 CALM      30.11R
BOISE          CLEAR     52  42  69 SE6       30.07R
SPOKANE        PTCLDY    57  41  55 SW10      30.04R
$$

REGIONAL REPORTS...ALBERTA

CITY           SKY/WX    TMP DP  RH WIND       PRES   REMARKS
EDMONTON       CLEAR     50  41  71 W6        29.84S
CALGARY        PTCLDY    59  30  33 W14       29.94R
LETHBRIDGE     PTCLDY    48  37  66 W9        29.94R
MEDICINE HAT   CLOUDY    54  41  62 SW8       29.86R
CARDSTON         N/A     48  34  57 SW9         N/A
MILK RIVER       N/A     50  39  66 W12         N/A
ONEFOUR          N/A     52  36  54 NW13        N/A
$$

REGIONAL REPORTS...SASKATCHEWAN

CITY           SKY/WX    TMP DP  RH WIND       PRES   REMARKS
SWIFT CURRENT  CLOUDY    48  43  81 SW13      29.82S
REGINA         PTCLDY    45  41  87 W12       29.77S
SASKATOON      CLEAR     39  37  93 W5        29.78S
CYPRESS HILLS    N/A     50  32  50 W3          N/A
VAL MARIE        N/A     46  41  81 W6          N/A
ROCKGLEN         N/A     45  39  81 W13         N/A
$$




USA.gov is the U.S. government's official web portal to all federal, state and local government web resources and services.